Weather History for Everett-Stewart Regional Airp, TN

Change the Weather History Date:

Sunday, January 19, 2014

  Actual Average (KDYR) Record (KDYR)
Temperature  
Mean Temperature 36 °F -  
Max Temperature 44 °F 43 °F 64 °F (1999)
Min Temperature 28 °F 28 °F 15 °F (2003)
Degree Days  
Heating Degree Days 29    
Moisture  
Dew Point 25 °F    
Average Humidity 67    
Maximum Humidity 86    
Minimum Humidity 46    
Precipitation  
Precipitation 0.00 in - - ()
Sea Level Pressure  
Sea Level Pressure 30.03 in    
Wind  
Wind Speed 10 mph (WSW)    
Max Wind Speed 16 mph    
Max Gust Speed -    
Visibility 10 miles    
Events      
Averages and records for this station are not official NWS values.
T = Trace of Precipitation, MM = Missing Value Source: NWS Daily Summary

Daily Weather History Graph

Daily Weather History Graph

Search for Another Location

Airport:

Trip Planner

Search our weather history database for the weather conditions in past years. The results will help you decide how hot, cold, wet, or windy it might be!

Date:

Astronomy

Jan. 19, 2014 Rise Set
Actual Time 7:05 AM CST 5:08 PM CST
Civil Twilight 6:37 AM CST 5:36 PM CST
Nautical Twilight 6:05 AM CST 6:07 PM CST
Astronomical Twilight 5:35 AM CST 6:38 PM CST
Moon 8:39 PM CST (1/19) 8:42 AM CST (1/19)
Length of Visible Light 10h 58m
Length of Day
10h 03m
Waning Gibbous, 89% of the Moon is Illuminated
Jan 19
Waning Gibbous
Jan 23
Last Quarter
Jan 30
New
Feb 6
First Quarter
Feb 14
Full

Hourly Weather History & Observations

Time (CST) Temp. Windchill Dew Point Humidity Pressure Visibility Wind Dir Wind Speed Gust Speed Precip Events Conditions
12:15 AM 35.6 °F 29.2 °F 30.2 °F 81% 29.91 in 10.0 mi NNW 8.1 mph - N/A   Overcast
12:35 AM 35.6 °F 25.9 °F 28.4 °F 75% 29.92 in 10.0 mi NNW 16.1 mph - N/A   Overcast
12:55 AM 35.6 °F 26.2 °F 28.4 °F 75% 29.93 in 10.0 mi NW 15.0 mph - N/A   Partly Cloudy
1:15 AM 33.8 °F 25.3 °F 26.6 °F 75% 29.94 in 10.0 mi NW 11.5 mph - N/A   Clear
1:35 AM 33.8 °F 23.9 °F 26.6 °F 75% 29.94 in 10.0 mi NW 15.0 mph - N/A   Clear
1:55 AM 33.8 °F 24.8 °F 26.6 °F 75% 29.96 in 10.0 mi NW 12.7 mph - N/A   Clear
2:15 AM 33.8 °F 25.3 °F 26.6 °F 75% 29.98 in 10.0 mi NNW 11.5 mph - N/A   Scattered Clouds
2:35 AM 33.8 °F 25.3 °F 26.6 °F 75% 29.99 in 10.0 mi NW 11.5 mph - N/A   Overcast
2:55 AM 33.8 °F 26.4 °F 26.6 °F 75% 30.01 in 10.0 mi NNW 9.2 mph - N/A   Overcast
3:15 AM 33.8 °F 25.8 °F 26.6 °F 75% 30.02 in 10.0 mi NNW 10.4 mph - N/A   Overcast
3:35 AM 33.8 °F 26.4 °F 26.6 °F 75% 30.02 in 10.0 mi NNW 9.2 mph - N/A   Overcast
3:55 AM 33.8 °F 25.3 °F 26.6 °F 75% 30.03 in 10.0 mi NNW 11.5 mph - N/A   Overcast
4:15 AM 32.0 °F 24.2 °F 26.6 °F 80% 30.04 in 10.0 mi NW 9.2 mph - N/A   Overcast
4:35 AM 32.0 °F 23.0 °F 26.6 °F 80% 30.04 in 10.0 mi NNW 11.5 mph - N/A   Overcast
4:55 AM 32.0 °F 23.6 °F 24.8 °F 75% 30.05 in 10.0 mi NNW 10.4 mph - N/A   Overcast
5:15 AM 32.0 °F 24.2 °F 24.8 °F 75% 30.06 in 10.0 mi NW 9.2 mph - N/A   Overcast
5:35 AM 30.2 °F 20.2 °F 24.8 °F 80% 30.07 in 10.0 mi NNW 12.7 mph - N/A   Overcast
5:55 AM 30.2 °F 21.3 °F 24.8 °F 80% 30.08 in 10.0 mi NNW 10.4 mph - N/A   Overcast
6:15 AM 30.2 °F 21.9 °F 24.8 °F 80% 30.08 in 10.0 mi NW 9.2 mph - N/A   Overcast
6:35 AM 30.2 °F 23.4 °F 24.8 °F 80% 30.09 in 10.0 mi NW 6.9 mph - N/A   Overcast
6:55 AM 30.2 °F 24.3 °F 24.8 °F 80% 30.09 in 10.0 mi NW 5.8 mph - N/A   Overcast
7:15 AM 28.4 °F 23.3 °F 24.8 °F 86% 30.08 in 10.0 mi West 4.6 mph - N/A   Overcast
7:35 AM 28.4 °F 21.2 °F 23.0 °F 80% 30.10 in 10.0 mi WNW 6.9 mph - N/A   Mostly Cloudy
7:55 AM 28.4 °F 23.3 °F 24.8 °F 86% 30.10 in 10.0 mi WNW 4.6 mph - N/A   Partly Cloudy
8:15 AM 30.2 °F 25.4 °F 24.8 °F 80% 30.11 in 10.0 mi West 4.6 mph - N/A   Clear
8:35 AM 30.2 °F 22.6 °F 24.8 °F 80% 30.13 in 10.0 mi WNW 8.1 mph - N/A   Clear
8:55 AM 30.2 °F 22.6 °F 23.0 °F 75% 30.13 in 10.0 mi West 8.1 mph - N/A   Clear
9:15 AM 32.0 °F 24.8 °F 23.0 °F 69% 30.14 in 10.0 mi WNW 8.1 mph - N/A   Clear
9:35 AM 32.0 °F 24.8 °F 24.8 °F 75% 30.15 in 10.0 mi WNW 8.1 mph - N/A   Clear
9:55 AM 33.8 °F 27.7 °F 23.0 °F 65% 30.15 in 10.0 mi West 6.9 mph - N/A   Clear
10:15 AM 33.8 °F 27.0 °F 23.0 °F 65% 30.17 in 10.0 mi WNW 8.1 mph - N/A   Clear
10:35 AM 35.6 °F 29.2 °F 23.0 °F 60% 30.16 in 10.0 mi SW 8.1 mph - N/A   Clear
10:55 AM 35.6 °F 28.6 °F 24.8 °F 65% 30.15 in 10.0 mi WSW 9.2 mph - N/A   Clear
11:15 AM 37.4 °F 30.8 °F 24.8 °F 60% 30.15 in 10.0 mi SW 9.2 mph - N/A   Clear
11:35 AM 37.4 °F 28.9 °F 24.8 °F 60% 30.14 in 10.0 mi SW 13.8 mph - N/A   Clear
11:55 AM 37.4 °F 29.3 °F 24.8 °F 60% 30.12 in 10.0 mi SW 12.7 mph - N/A   Clear
12:15 PM 37.4 °F 29.8 °F 26.6 °F 65% 30.11 in 10.0 mi WSW 11.5 mph - N/A   Clear
12:35 PM 37.4 °F 29.8 °F 24.8 °F 60% 30.10 in 10.0 mi WSW 11.5 mph - N/A   Clear
12:55 PM 39.2 °F 32.5 °F 24.8 °F 56% 30.08 in 10.0 mi SW 10.4 mph - N/A   Clear
1:15 PM 39.2 °F 32.0 °F 26.6 °F 61% 30.07 in 10.0 mi SW 11.5 mph - N/A   Clear
1:35 PM 41.0 °F 34.7 °F 26.6 °F 57% 30.05 in 10.0 mi SW 10.4 mph - N/A   Clear
1:55 PM 41.0 °F 34.7 °F 26.6 °F 57% 30.05 in 10.0 mi SW 10.4 mph - N/A   Clear
2:15 PM 42.8 °F 37.0 °F 24.8 °F 49% 30.05 in 10.0 mi SSW 10.4 mph - N/A   Clear
2:35 PM 42.8 °F 37.0 °F 24.8 °F 49% 30.05 in 10.0 mi SW 10.4 mph - N/A   Clear
2:55 PM 42.8 °F 37.0 °F 24.8 °F 49% 30.05 in 10.0 mi SW 10.4 mph - N/A   Clear
3:15 PM 42.8 °F 36.6 °F 24.8 °F 49% 30.05 in 10.0 mi SSW 11.5 mph - N/A   Clear
3:35 PM 44.6 °F 38.8 °F 24.8 °F 46% 30.03 in 10.0 mi SSW 11.5 mph - N/A   Clear
3:55 PM 44.6 °F 39.7 °F 24.8 °F 46% 30.03 in 10.0 mi SSW 9.2 mph - N/A   Clear
4:15 PM 44.6 °F 39.7 °F 24.8 °F 46% 30.03 in 10.0 mi SSW 9.2 mph - N/A   Clear
4:35 PM 42.8 °F 40.1 °F 24.8 °F 49% 30.02 in 10.0 mi South 4.6 mph - N/A   Clear
4:55 PM 41.0 °F 37.1 °F 26.6 °F 57% 30.01 in 10.0 mi South 5.8 mph - N/A   Clear
5:15 PM 39.2 °F 35.0 °F 24.8 °F 56% 30.01 in 10.0 mi SSW 5.8 mph - N/A   Clear
5:35 PM 37.4 °F 32.8 °F 24.8 °F 60% 30.01 in 10.0 mi South 5.8 mph - N/A   Clear
5:55 PM 35.6 °F 31.7 °F 24.8 °F 65% 30.00 in 10.0 mi South 4.6 mph - N/A   Clear
6:15 PM 33.8 °F 28.6 °F 24.8 °F 70% 30.00 in 10.0 mi South 5.8 mph - N/A   Clear
6:55 PM 35.6 °F 29.9 °F 24.8 °F 65% 29.99 in 10.0 mi South 6.9 mph - N/A   Clear
7:15 PM 35.6 °F 29.2 °F 24.8 °F 65% 29.98 in 10.0 mi South 8.1 mph - N/A   Clear
7:35 PM 35.6 °F 29.9 °F 24.8 °F 65% 29.97 in 10.0 mi SSW 6.9 mph - N/A   Clear
7:55 PM 35.6 °F 30.7 °F 24.8 °F 65% 29.98 in 10.0 mi SSW 5.8 mph - N/A   Clear
8:15 PM 35.6 °F 29.2 °F 24.8 °F 65% 29.96 in 10.0 mi South 8.1 mph - N/A   Clear
8:35 PM 35.6 °F 28.6 °F 24.8 °F 65% 29.96 in 10.0 mi SSW 9.2 mph - N/A   Clear
8:55 PM 35.6 °F 28.0 °F 24.8 °F 65% 29.95 in 10.0 mi SSW 10.4 mph - N/A   Clear
9:15 PM 37.4 °F 29.8 °F 24.8 °F 60% 29.94 in 10.0 mi SSW 11.5 mph - N/A   Clear
9:35 PM 37.4 °F 31.4 °F 24.8 °F 60% 29.94 in 10.0 mi SSW 8.1 mph - N/A   Clear
9:55 PM 37.4 °F 30.8 °F 24.8 °F 60% 29.94 in 10.0 mi SSW 9.2 mph - N/A   Clear
10:15 PM 37.4 °F 31.4 °F 24.8 °F 60% 29.94 in 10.0 mi SSW 8.1 mph - N/A   Clear
10:35 PM 35.6 °F 29.9 °F 24.8 °F 65% 29.95 in 10.0 mi SSW 6.9 mph - N/A   Clear
10:55 PM 35.6 °F 29.9 °F 24.8 °F 65% 29.94 in 10.0 mi South 6.9 mph - N/A   Clear
11:15 PM 33.8 °F 28.6 °F 24.8 °F 70% 29.94 in 10.0 mi South 5.8 mph - N/A   Clear
11:35 PM 33.8 °F 28.6 °F 26.6 °F 75% 29.94 in 10.0 mi South 5.8 mph - N/A   Clear
11:55 PM 33.8 °F 29.6 °F 26.6 °F 75% 29.93 in 10.0 mi South 4.6 mph - N/A   Clear